Regional Weather Roundup
Issued by NWS Charleston, WV

Home | Current Version | Previous Version | Text Only | Print | Product List | Glossary Off
Versions: 1 2 3 4 5 6 7 8 9 10 11 12 13 14 15 16 17 18 19 20 21 22 23 24 25 26 27 28 29 30 31 32 33 34 35 36 37 38 39 40 41 42 43 44 45 46 47 48 49 50

800
ASUS41 KRLX 231410
RWRRLX
West Virginia Regional Weather Roundup
National Weather Service Charleston WV
1000 AM EDT SAT SEP 23 2017

Note: "fair" indicates few or no clouds below 12,000 feet with no
significant weather and/or obstructions to visibility.

WVZ003-231500-
Northern Panhandle of West Virginia

CITY           SKY/WX    TMP DP  RH WIND       PRES   REMARKS
WHEELING       SUNNY     69  60  73 N3        30.17R
$$

WVZ009-231500-
Northwest West Virginia

CITY           SKY/WX    TMP DP  RH WIND       PRES   REMARKS
PARKERSBURG    FOG       66  65  96 CALM      30.17S VSB 1
$$

WVZ006-231500-
Western West Virginia

CITY           SKY/WX    TMP DP  RH WIND       PRES   REMARKS
HUNTINGTON     SUNNY     69  65  86 CALM      30.13R FOG
$$

WVZ015-231500-
West Central West Virginia

CITY           SKY/WX    TMP DP  RH WIND       PRES   REMARKS
CHARLESTON     MOSUNNY   68  63  84 CALM      30.13S
$$

WVZ022-031-231500-
North Central West Virginia

CITY           SKY/WX    TMP DP  RH WIND       PRES   REMARKS
CLARKSBURG     SUNNY     66  61  84 CALM      30.16R
MORGANTOWN     SUNNY     70  61  73 CALM      30.18R
$$

WVZ025-035-042-045-231500-
Southern West Virginia

CITY           SKY/WX    TMP DP  RH WIND       PRES   REMARKS
BECKLEY        SUNNY     72  60  66 E6        30.19R
LOGAN            N/A     70  66  88 CALM      30.15S
BLUEFIELD      SUNNY     68  61  78 CALM      30.21R
LEWISBURG      SUNNY     67  59  76 NE6       30.19S
$$

WVZ047-231500-
Northern Mountains of West Virginia

CITY           SKY/WX    TMP DP  RH WIND       PRES   REMARKS
ELKINS         CLOUDY    60  58  92 CALM      30.21S FOG
$$

WVZ052-231500-
Eastern Panhandle of West Virginia

CITY           SKY/WX    TMP DP  RH WIND       PRES   REMARKS
MARTINSBURG    MOSUNNY   65  59  81 CALM      30.14R
PETERSBURG     MOSUNNY   66  62  85 CALM      30.17F
$$




USA.gov is the U.S. government's official web portal to all federal, state and local government web resources and services.